W5TTY Weather Reports


time (UTC)temp
F
wind
direction
speed
knots
gust
knots
rain 1hr
in
rain 24hr
in
rain mn
in
humidity
%
barometer
mb
20260506032832 77 205 2.6 9.6 0.00 0.00 0.00 80 1007.5
20260506032405 77 167 4.3 9.6 0.00 0.00 0.00 80 1007.5
20260506031831 78 175 5.2 8.7 0.00 0.00 0.00 80 1007.4
20260506031340 78 175 3.5 8.7 0.00 0.00 0.00 80 1007.4
20260506030828 78 165 3.5 7.0 0.00 0.00 0.00 80 1007.3
20260506030332 78 139 3.5 11.3 0.00 0.00 0.00 80 1007.3
20260506025829 78 164 4.3 11.3 0.00 0.00 0.00 80 1007.2
20260506025328 78 140 3.5 8.7 0.00 0.00 0.00 80 1007.1
20260506024842 78 136 4.3 8.7 0.00 0.00 0.00 80 1007.0
20260506024329 78 159 4.3 8.7 0.00 0.00 0.00 79 1007.0
20260506023832 78 149 2.6 10.4 0.00 0.00 0.00 80 1006.9
20260506023320 78 138 4.3 9.6 0.00 0.00 0.00 79 1006.8
20260506022833 78 176 2.6 10.4 0.00 0.00 0.00 79 1006.8
20260506022318 79 164 3.5 10.4 0.00 0.00 0.00 79 1006.8
20260506021851 79 157 3.5 8.7 0.00 0.00 0.00 79 1006.7
20260506021332 79 223 3.5 8.7 0.00 0.00 0.00 79 1006.6
20260506020844 79 194 2.6 7.8 0.00 0.00 0.00 79 1006.7
20260506020328 79 165 3.5 7.0 0.00 0.00 0.00 79 1006.7
20260506015845 79 182 2.6 7.8 0.00 0.00 0.00 79 1006.7
20260506015329 79 178 3.5 7.8 0.00 0.00 0.00 79 1006.6
20260506014836 79 171 2.6 7.0 0.00 0.00 0.00 79 1006.5
20260506014320 79 186 3.5 7.0 0.00 0.00 0.00 79 1006.5
20260506013834 79 182 1.7 4.3 0.00 0.00 0.00 79 1006.6
20260506013342 79 173 2.6 9.6 0.00 0.00 0.00 78 1006.4
20260506012834 79 184 2.6 9.6 0.00 0.00 0.00 78 1006.4
20260506012341 79 163 3.5 10.4 0.00 0.00 0.00 79 1006.2
20260506011832 79 179 3.5 7.8 0.00 0.00 0.00 78 1006.2
20260506011358 80 199 2.6 7.8 0.00 0.00 0.00 78 1006.1
20260506010831 80 181 4.3 9.6 0.00 0.00 0.00 78 1006.0
20260506010319 80 214 4.3 10.4 0.00 0.00 0.00 78 1006.0
20260506005828 80 150 6.1 10.4 0.00 0.00 0.00 78 1005.8
20260506005339 80 196 4.3 12.2 0.00 0.00 0.00 78 1005.6
20260506004828 80 187 5.2 12.2 0.00 0.00 0.00 78 1005.5
20260506004326 80 169 6.1 16.5 0.00 0.00 0.00 78 1005.5
20260506003843 81 186 5.2 16.5 0.00 0.00 0.00 78 1005.3
20260506003328 81 160 5.2 14.8 0.00 0.00 0.00 78 1005.2
20260506002834 81 223 4.3 13.0 0.00 0.00 0.00 78 1005.2
20260506002326 81 173 7.0 12.2 0.00 0.00 0.00 78 1005.2
20260506001835 81 161 6.1 14.8 0.00 0.00 0.00 78 1005.3
20260506001348 82 171 6.1 14.8 0.00 0.00 0.00 78 1005.3
20260506000835 82 205 6.1 10.4 0.00 0.00 0.00 78 1005.3
20260506000323 82 199 4.3 8.7 0.00 0.00 0.00 78 1005.3
20260505235836 82 200 3.5 11.3 0.00 0.00 0.00 78 1005.1
20260505235322 82 234 5.2 11.3 0.00 0.00 0.00 78 1005.0
20260505234837 82 146 4.3 13.0 0.00 0.00 0.00 78 1005.0
20260505234345 83 145 5.2 14.8 0.00 0.00 0.00 78 1005.0
20260505233838 83 203 7.0 13.9 0.00 0.00 0.00 79 1004.9
20260505233325 83 182 6.1 13.0 0.00 0.00 0.00 79 1004.9
20260505232830 83 192 6.1 13.0 0.00 0.00 0.00 79 1004.8
20260505232321 83 198 5.2 12.2 0.00 0.00 0.00 79 1004.9
20260505231828 83 151 4.3 10.4 0.00 0.00 0.00 79 1004.9
20260505231354 84 190 5.2 13.0 0.00 0.00 0.00 79 1004.9
20260505230819 84 102 6.1 11.3 0.00 0.00 0.00 79 1004.9
20260505230332 84 191 7.0 13.9 0.00 0.00 0.00 79 1004.9
20260505225837 84 169 5.2 17.4 0.00 0.00 0.00 79 1004.9
20260505225323 84 145 6.1 17.4 0.00 0.00 0.00 79 1004.8
20260505224835 84 176 8.7 18.2 0.00 0.00 0.00 79 1004.9
20260505224320 84 201 5.2 16.5 0.00 0.00 0.00 80 1004.9
20260505223828 85 221 8.7 16.5 0.00 0.00 0.00 80 1004.9
20260505223337 84 138 7.8 16.5 0.00 0.00 0.00 80 1005.0
20260505222852 84 199 7.8 15.6 0.00 0.00 0.00 80 1005.0
20260505222402 85 221 7.0 15.6 0.00 0.00 0.00 80 1005.1
20260505221849 85 209 7.0 14.8 0.00 0.00 0.00 80 1005.0
20260505221339 85 169 6.1 14.8 0.00 0.00 0.00 80 1005.1
20260505220852 85 142 7.0 16.5 0.00 0.00 0.00 81 1005.2
20260505220320 85 229 6.1 18.2 0.00 0.00 0.00 81 1005.2
20260505215823 85 207 9.6 18.2 0.00 0.00 0.00 81 1005.1
20260505215332 85 233 7.0 14.8 0.00 0.00 0.00 81 1005.3
20260505214817 85 212 5.2 13.0 0.00 0.00 0.00 81 1005.4
20260505214321 85 141 6.1 14.8 0.00 0.00 0.00 82 1005.4
20260505213853 85 180 7.0 14.8 0.00 0.00 0.00 82 1005.4
20260505213347 85 172 8.7 14.8 0.00 0.00 0.00 82 1005.4
20260505212833 85 187 6.1 13.9 0.00 0.00 0.00 82 1005.5
20260505212337 84 211 5.2 13.0 0.00 0.00 0.00 82 1005.5
20260505211822 85 207 6.1 12.2 0.00 0.00 0.00 82 1005.6
20260505211333 85 135 8.7 12.2 0.00 0.00 0.00 82 1005.7
20260505210833 85 173 7.8 13.9 0.00 0.00 0.00 83 1005.7
20260505210319 85 197 7.8 15.6 0.00 0.00 0.00 83 1005.8
20260505205832 84 238 5.2 14.8 0.00 0.00 0.00 83 1005.9
20260505205336 84 225 6.1 12.2 0.00 0.00 0.00 83 1006.1
20260505204820 84 211 7.0 16.5 0.00 0.00 0.00 83 1006.3
20260505204331 84 211 10.4 16.5 0.00 0.00 0.00 83 1006.5
20260505203838 84 219 5.2 14.8 0.00 0.00 0.00 84 1006.5
20260505203324 84 219 7.8 16.5 0.00 0.00 0.00 84 1006.5
20260505202838 84 172 7.8 16.5 0.00 0.00 0.00 84 1006.6
20260505202325 84 202 9.6 14.8 0.00 0.00 0.00 84 1006.6
20260505201831 84 222 7.0 17.4 0.00 0.00 0.00 84 1006.7
20260505201337 84 220 10.4 17.4 0.00 0.00 0.00 84 1006.7
20260505200828 84 248 9.6 17.4 0.00 0.00 0.00 85 1006.8
20260505200333 83 222 6.1 19.1 0.00 0.00 0.00 85 1006.8
20260505195824 83 240 11.3 19.1 0.00 0.00 0.00 85 1006.9
20260505195331 83 232 8.7 15.6 0.00 0.00 0.00 85 1006.9
20260505194845 83 200 9.6 20.9 0.00 0.00 0.00 85 1007.1
20260505194330 83 240 7.8 20.9 0.00 0.00 0.00 85 1007.0
20260505193842 83 221 7.8 21.7 0.00 0.00 0.00 85 1007.1
20260505193356 83 194 10.4 21.7 0.00 0.00 0.00 85 1007.2
20260505192823 83 240 8.7 16.5 0.00 0.00 0.00 85 1007.3
20260505192323 82 208 6.1 23.5 0.00 0.00 0.00 86 1007.3
20260505191854 82 202 7.8 23.5 0.00 0.00 0.00 86 1007.3
20260505191344 82 229 7.0 16.5 0.00 0.00 0.00 86 1007.4
20260505190826 82 211 10.4 17.4 0.00 0.00 0.00 86 1007.5
20260505190338 81 230 9.6 15.6 0.00 0.00 0.00 86 1007.5
20260505185847 81 227 7.8 16.5 0.00 0.00 0.00 86 1007.6
20260505185330 81 218 7.8 18.2 0.00 0.00 0.00 86 1007.6
20260505184817 81 208 8.7 20.0 0.00 0.00 0.00 86 1007.6
20260505184323 81 182 5.2 20.0 0.00 0.00 0.00 86 1007.7
20260505183839 81 195 7.0 16.5 0.00 0.00 0.00 86 1007.6
20260505183345 80 209 7.8 17.4 0.00 0.00 0.00 86 1007.6
20260505182834 80 232 7.0 18.2 0.00 0.00 0.00 86 1007.6
20260505182320 80 252 9.6 18.2 0.00 0.00 0.00 86 1007.7
20260505181826 80 212 8.7 15.6 0.00 0.00 0.00 86 1007.7
20260505181358 79 214 7.8 17.4 0.00 0.00 0.00 86 1007.7
20260505180848 79 184 8.7 17.4 0.00 0.00 0.00 86 1007.8
20260505180334 79 197 7.8 19.1 0.00 0.00 0.00 86 1007.8
20260505175821 79 234 8.7 19.1 0.00 0.00 0.00 86 1007.7
20260505175328 79 223 6.1 13.9 0.00 0.00 0.00 86 1007.8
20260505174833 79 207 7.0 19.1 0.00 0.00 0.00 86 1007.8
20260505174317 78 140 11.3 19.1 0.00 0.00 0.00 86 1007.9
20260505173828 78 223 7.0 14.8 0.00 0.00 0.00 86 1007.9
20260505173334 78 190 7.0 14.8 0.00 0.00 0.00 86 1008.0
20260505172846 78 202 7.8 15.6 0.00 0.00 0.00 86 1008.1
20260505172331 77 227 5.2 13.0 0.00 0.00 0.00 86 1008.1
20260505171820 77 213 6.1 13.0 0.00 0.00 0.00 86 1008.1
20260505171325 77 238 7.0 13.9 0.00 0.00 0.00 86 1008.2
20260505170836 76 211 5.2 12.2 0.00 0.00 0.00 86 1008.2
20260505170324 76 190 5.2 13.0 0.00 0.00 0.00 86 1008.4
20260505165829 76 232 6.1 13.0 0.00 0.00 0.00 86 1008.3
20260505165319 76 213 5.2 13.9 0.00 0.00 0.00 86 1008.3
20260505164828 76 180 7.0 13.9 0.00 0.00 0.00 86 1008.2
20260505164339 76 212 7.0 12.2 0.00 0.00 0.00 86 1008.3
20260505163824 76 186 5.2 17.4 0.00 0.00 0.00 86 1008.2
20260505163357 76 236 8.7 19.1 0.00 0.00 0.00 86 1008.3
20260505162819 75 180 7.0 17.4 0.00 0.00 0.00 86 1008.3
20260505162347 75 198 6.1 16.5 0.00 0.00 0.00 85 1008.3
20260505161833 75 178 6.1 16.5 0.00 0.00 0.00 85 1008.3
20260505161319 75 217 6.1 14.8 0.00 0.00 0.00 85 1008.3
20260505160831 75 174 7.0 13.9 0.00 0.00 0.00 86 1008.3
20260505160318 75 207 7.8 13.0 0.00 0.00 0.00 86 1008.3
20260505153348 74 199 7.8 13.0 0.00 0.00 0.00 85 1008.6
20260505152822 74 229 7.0 13.0 0.00 0.00 0.00 85 1008.6
20260505152327 74 218 5.2 13.9 0.00 0.00 0.00 85 1008.6
20260505151840 74 215 5.2 17.4 0.00 0.00 0.00 85 1008.5
20260505151347 74 218 6.1 17.4 0.00 0.00 0.00 85 1008.5
20260505150840 74 192 5.2 15.6 0.00 0.00 0.00 85 1008.4
20260505150328 74 164 6.1 15.6 0.00 0.00 0.00 85 1008.4
20260505140324 72 219 4.3 13.9 0.00 0.00 0.00 84 1008.0
20260505124841 71 164 3.5 10.4 0.00 0.00 0.00 83 1007.7
20260505124326 71 169 5.2 8.7 0.00 0.00 0.00 83 1007.7
20260505123829 71 196 3.5 10.4 0.00 0.00 0.00 83 1007.5
20260505123347 71 178 5.2 13.0 0.00 0.00 0.00 83 1007.6
20260505122831 71 201 6.1 13.0 0.00 0.00 0.00 83 1007.5
20260505122321 71 225 4.3 11.3 0.00 0.00 0.00 83 1007.6
20260505121825 71 224 6.1 11.3 0.00 0.00 0.00 83 1007.5
20260505121317 71 208 5.2 12.2 0.00 0.00 0.00 83 1007.6
20260505120818 71 231 6.1 13.9 0.00 0.00 0.00 82 1007.4
20260505120322 71 218 6.1 13.9 0.00 0.00 0.00 82 1007.3
20260505115820 71 190 5.2 14.8 0.00 0.00 0.00 82 1007.4
20260505115322 71 199 5.2 14.8 0.00 0.00 0.00 82 1007.2
20260505114835 71 232 5.2 11.3 0.00 0.00 0.00 82 1007.0
20260505114318 71 221 6.1 14.8 0.00 0.00 0.00 82 1007.0
20260505113822 71 161 5.2 17.4 0.00 0.00 0.00 82 1007.1
20260505113338 71 210 5.2 17.4 0.00 0.00 0.00 82 1007.3
20260505112826 71 204 6.1 13.9 0.00 0.00 0.00 82 1007.3
20260505112327 71 186 7.0 15.6 0.00 0.00 0.00 82 1007.1
20260505111841 71 192 6.1 13.9 0.00 0.00 0.00 82 1007.0
20260505111330 71 199 5.2 13.9 0.00 0.00 0.00 82 1006.9